Weather History for Milwaukee Timmerman, WI

Change the Weather History Date:

Sunday, February 2, 2014

  Actual Average Record
Temperature  
Mean Temperature 9 °F -  
Max Temperature 17 °F 30 °F 49 °F (1992)
Min Temperature 0 °F 14 °F -22 °F (1951)
Degree Days  
Heating Degree Days 56    
Moisture  
Dew Point 2 °F    
Average Humidity 70    
Maximum Humidity 85    
Minimum Humidity 49    
Precipitation  
Precipitation 0.00 in - - ()
Sea Level Pressure  
Sea Level Pressure 30.20 in    
Wind  
Wind Speed 8 mph (WNW)    
Max Wind Speed 17 mph    
Max Gust Speed -    
Visibility 10 miles    
Events      
Averages and records for this station are not official NWS values.
T = Trace of Precipitation, MM = Missing Value Source: NWS Daily Summary

Daily Weather History Graph

Daily Weather History Graph

Search for Another Location

Airport:

Trip Planner

Search our weather history database for the weather conditions in past years. The results will help you decide how hot, cold, wet, or windy it might be!

Date:

Astronomy

Feb. 02, 2014 Rise Set
Actual Time 7:06 AM CST 5:05 PM CST
Civil Twilight 6:36 AM CST 5:36 PM CST
Nautical Twilight 6:02 AM CST 6:10 PM CST
Astronomical Twilight 5:28 AM CST 6:43 PM CST
Moon 8:26 AM CST (2/2) 8:57 PM CST (2/2)
Length of Visible Light 10h 59m
Length of Day
9h 59m
Waxing Crescent, 11% of the Moon is Illuminated
Feb 2
Waxing Crescent
Feb 6
First Quarter
Feb 14
Full
Feb 22
Last Quarter
Mar 1
New

Hourly Weather History & Observations

Time (CST) Temp. Windchill Dew Point Humidity Pressure Visibility Wind Dir Wind Speed Gust Speed Precip Events Conditions
12:15 AM 17.6 °F 5.0 °F 10.4 °F 73% 30.08 in 10.0 mi NW 11.5 mph - N/A   Clear
12:35 AM 17.6 °F 5.7 °F 8.6 °F 68% 30.09 in 10.0 mi NW 10.4 mph - N/A   Clear
12:55 AM 15.8 °F 2.7 °F 8.6 °F 73% 30.09 in 10.0 mi NW 11.5 mph - N/A   Clear
1:15 AM 14.0 °F 0.5 °F 6.8 °F 73% 30.09 in 10.0 mi NW 11.5 mph - N/A   Clear
1:35 AM 14.0 °F 2.9 °F 6.8 °F 73% 30.10 in 10.0 mi NW 8.1 mph - N/A   Clear
1:55 AM 14.0 °F 2.0 °F 6.8 °F 73% 30.11 in 10.0 mi NW 9.2 mph - N/A   Clear
2:15 AM 14.0 °F 2.9 °F 6.8 °F 73% 30.11 in 10.0 mi NW 8.1 mph - N/A   Scattered Clouds
2:35 AM 14.0 °F 3.9 °F 6.8 °F 73% 30.11 in 10.0 mi WNW 6.9 mph - N/A   Scattered Clouds
2:55 AM 14.0 °F 3.9 °F 5.0 °F 67% 30.12 in 10.0 mi WNW 6.9 mph - N/A   Scattered Clouds
3:15 AM 12.2 °F -0.2 °F 5.0 °F 73% 30.12 in 10.0 mi NW 9.2 mph - N/A   Clear
3:35 AM 12.2 °F 0.7 °F 3.2 °F 67% 30.12 in 10.0 mi NW 8.1 mph - N/A   Clear
3:55 AM 10.4 °F -1.5 °F 3.2 °F 73% 30.13 in 10.0 mi WNW 8.1 mph - N/A   Clear
4:15 AM 10.4 °F 0.8 °F 3.2 °F 73% 30.14 in 10.0 mi WNW 5.8 mph - N/A   Clear
4:35 AM 10.4 °F 0.8 °F 3.2 °F 73% 30.14 in 10.0 mi West 5.8 mph - N/A   Clear
4:55 AM 10.4 °F -0.4 °F 3.2 °F 73% 30.15 in 10.0 mi WNW 6.9 mph - N/A   Mostly Cloudy
5:15 AM 10.4 °F -1.5 °F 3.2 °F 73% 30.15 in 10.0 mi WNW 8.1 mph - N/A   Overcast
5:35 AM 10.4 °F -2.4 °F 3.2 °F 73% 30.15 in 10.0 mi WNW 9.2 mph - N/A   Overcast
5:55 AM 10.4 °F -3.3 °F 3.2 °F 73% 30.16 in 10.0 mi WNW 10.4 mph - N/A   Mostly Cloudy
6:15 AM 8.6 °F -3.7 °F 1.4 °F 73% 30.17 in 10.0 mi WNW 8.1 mph - N/A   Scattered Clouds
6:35 AM 8.6 °F -5.5 °F 1.4 °F 73% 30.18 in 10.0 mi WNW 10.4 mph - N/A   Clear
6:45 AM 8.6 °F -4.7 °F 1.4 °F 73% 30.18 in 10.0 mi NW 9.2 mph - N/A   Clear
7:45 AM 6.8 °F -4.8 °F -0.4 °F 72% 30.21 in 10.0 mi West 6.9 mph - N/A   Clear
8:45 AM 10.4 °F -2.4 °F 1.4 °F 67% 30.23 in 10.0 mi West 9.2 mph - N/A   Clear
9:45 AM 12.2 °F -1.8 °F 3.2 °F 67% 30.24 in 10.0 mi WNW 11.5 mph - N/A   Clear
10:45 AM 15.8 °F -0.2 °F 3.2 °F 58% 30.25 in 10.0 mi NW 17.3 mph - N/A   Clear
11:45 AM 17.6 °F 7.3 °F 3.2 °F 53% 30.24 in 10.0 mi WNW 8.1 mph - N/A   Clear
12:45 PM 17.6 °F 5.0 °F 3.2 °F 53% 30.23 in 10.0 mi NW 11.5 mph - N/A   Clear
1:45 PM 17.6 °F 8.2 °F 1.4 °F 49% 30.23 in 10.0 mi NW 6.9 mph - N/A   Clear
3:45 PM 15.8 °F 4.2 °F 1.4 °F 53% 30.28 in 10.0 mi WSW 9.2 mph - N/A   Clear
4:45 PM 12.2 °F -0.2 °F -0.4 °F 57% 30.29 in 10.0 mi West 9.2 mph - N/A   Clear
5:45 PM 10.4 °F 0.8 °F -0.4 °F 62% 30.29 in 10.0 mi West 5.8 mph - N/A   Clear
6:45 PM 6.8 °F - -2.2 °F 67% 30.27 in 10.0 mi Calm Calm - N/A   Clear
7:45 PM 6.8 °F - -0.4 °F 72% 30.28 in 10.0 mi Calm Calm - N/A   Clear
8:15 PM 8.6 °F - -0.4 °F 67% 30.27 in 10.0 mi Calm Calm - N/A   Clear
8:35 PM 3.2 °F -4.2 °F -4.0 °F 72% 30.28 in 10.0 mi SW 3.5 mph - N/A   Clear
8:45 PM 5.0 °F - -2.2 °F 72% 30.27 in 10.0 mi Calm Calm - N/A   Clear
8:55 PM 1.4 °F -8.3 °F -4.0 °F 78% 30.28 in 10.0 mi WSW 4.6 mph - N/A   Clear
9:15 PM 1.4 °F -8.3 °F -4.0 °F 78% 30.28 in 10.0 mi SW 4.6 mph - N/A   Clear
9:40 PM 3.2 °F -7.8 °F -4.0 °F 72% 30.28 in 10.0 mi WNW 5.8 mph - N/A   Clear
9:55 PM 1.4 °F -9.9 °F -4.0 °F 78% 30.27 in 10.0 mi WNW 5.8 mph - N/A   Clear
10:15 PM 3.2 °F -7.8 °F -4.0 °F 72% 30.27 in 10.0 mi West 5.8 mph - N/A   Clear
10:35 PM 3.2 °F -4.2 °F -4.0 °F 72% 30.27 in 10.0 mi West 3.5 mph - N/A   Clear
10:55 PM 3.2 °F -4.2 °F -2.2 °F 78% 30.28 in 10.0 mi WSW 3.5 mph - N/A   Clear
11:15 PM 3.2 °F - -0.4 °F 85% 30.28 in 10.0 mi Calm Calm - N/A   Clear
11:35 PM 5.0 °F - -0.4 °F 78% 30.29 in 10.0 mi Calm Calm - N/A   Clear
11:55 PM -0.4 °F -10.4 °F -5.8 °F 78% 30.28 in 10.0 mi WNW 4.6 mph - N/A   Clear